Regional Weather Roundup
Issued by NWS

Home | Current Version | Previous Version | Graphics & Text | Print | Product List | Glossary On
Versions: 1 2 3 4 5 6 7 8 9 10 11 12 13 14 15 16 17 18 19 20 21 22 23 24 25 26 27 28 29 30 31 32 33 34 35 36 37 38 39 40 41 42 43 44 45 46 47 48 49 50
000
ASUS45 KSLC 192210
RWRUT

UTAH REGIONAL WEATHER ROUNDUP
NATIONAL WEATHER SERVICE SALT LAKE CITY UT
400 PM MDT TUE AUG 19 2014

UTZ001>011-023>025-192300-

NORTHERN UTAH

CITY           SKY/WX    TMP DP  RH WIND       PRES   REMARKS
HILL AFB       PTSUNNY   66  52  59 SE8       29.96F
LOGAN          PTSUNNY   75  50  41 SW12      29.92F
OGDEN          CLOUDY    70  50  49 S17       29.93F
PROVO AIRPORT  CLOUDY    70  54  56 CALM      29.97F
SALT LAKE CITY CLOUDY    70  55  59 E9        29.94F
VERNAL         CLOUDY    73  52  47 VRB7      29.97F
WENDOVER       MOSUNNY   82  48  30 E9G16     29.88F
HEBER CITY     CLOUDY    63  54  72 CALM      30.03S
WEST JORDAN    CLOUDY    70  61  73 CALM      29.97F

$$

UTZ012>022-026-027-192300-

SOUTHERN UTAH

CITY           SKY/WX    TMP DP  RH WIND       PRES   REMARKS
BRYCE CANYON   CLOUDY    59  52  77 NE7       30.13F
CEDAR CITY     PTSUNNY   66  56  70 SW7       30.00F
MILFORD        PTSUNNY   71  55  56 SW14      29.96F
MOAB/CYNLANDS  MOSUNNY   79  52  38 VRB3      29.89F
PRICE          LGT RAIN  61  57  87 NW6       30.04F
ST GEORGE      CLOUDY    73  63  68 N12       29.90F
KANAB          CLOUDY    64  57  77 S3        30.04F

$$

REGIONAL REPORTS     COLORADO/ARIZONA

CITY           SKY/WX    TMP DP  RH WIND       PRES   REMARKS
CRAIG, CO        N/A     68  54  60 CALM      30.06F
GRAND JUNCTION PTSUNNY   75  52  44 W15       29.92F
RIFLE          MOSUNNY   83  42  23 W9        29.92F
MONTROSE       PTSUNNY   82  46  28 N5        29.95F
CORTEZ         CLOUDY    77  49  37 S13       30.01F
PAGE, AZ       CLOUDY    68  60  75 NW6       29.96F
GRAND CANYON   LGT RAIN  61  57  87 SW8       30.11F
KINGMAN        LGT RAIN  69  53  56 W22G37    29.96R
FLAGSTAFF      CLOUDY    58  55  90 SW8       30.15F

$$

REGIONAL REPORTS    NEVADA/IDAHO/WYOMING

CITY           SKY/WX    TMP DP  RH WIND       PRES   REMARKS
LAS VEGAS, NV  MOSUNNY   90  59  35 E17G24    29.75F
ELY            MOSUNNY   75  48  38 S8        29.97F
ELKO           CLOUDY    84  37  18 SE7       29.83F
POCATELLO, ID  MOSUNNY   83  46  27 S14G24    29.86F
BURLEY         MOSUNNY   86  48  26 S16G23    29.79F
EVANSTON, WY   LGT RAIN  56  51  84 SE5       30.11F
ROCK SPRINGS   PTSUNNY   66  48  52 SE13      30.04F

$$


USA.gov is the U.S. government's official web portal to all federal, state and local government web resources and services.